05:22
Airports
History
Links
Donate
Help keep this website running!
PayPal
Bitcoin
This page is community maintained. The information is intended for PC simulator navigation or reference.
Always use approved charts for navigation.
SBHT
ALTAMIRA
ALTAMIRA (SBHT)
Altamira, Para, Brazil (68372)
(C)
Lat/Lng:3° 15' 14.06" S / 52° 15' 14.31" W
-3.253906 / -52.253976
Elevation:368'ft / 112mMSL
ID / ICAO:SBHT
Runways:1
Longest:07-25
Asphalt 1,996m / 6,547ft
Controlled:Yes
METAR00:00 GMT 2017-12-13
Altimeter: 29.80
Visibility: 6.2 statute miles
Wind: 0 knots (from 000°)
Temp: 26°c / 79°f
Humidity: 88.8%

METAR: SBHT 130000Z 00000KT 9999 FEW020 26/24 Q1009

(Powered by phpweather)
Airport Radio Frequencies
Tower: 125.85
Runway 07 / 25
Dimensions:1995.6 x 38.1m 6547' x 125'ft
Surface:Asphalt
Edge Lights:Low intensity
Runway 07 [A]Runway 25 [B]
Heading:051°TH 231°TH
Lat:
Lng:
3° 15' 34.11"S
52° 15' 39.85"W
3° 14' 54.01"S
52° 14' 48.78"W
User Notes and Comments
3° 15' 14.06" S / 52° 15' 14.31" W
Distance To
Airport ID:
Nearby Airports
4 Continental 2.9 NM
SNCF S 187°
4 Aeroxingu 7.1 NM
SNZE NE 37°
4 Pousada Rio Xingu 36.7 NM
SJJH E 89°
4 Fazenda Peturu 40.1 NM
SWQY NNW 348°
4 Chacara Maringa 51.4 NM
SDWV NNE 23°
(U) WILMA REBELO 51.8 NM
SNWR NE 34°
(C) Saul 69.9 NM
SOOS WSW 248°
VFR Chart
Flight Planning at SkyVector.com